SVA1420 OEJN-OEMA

Flight info

Callsign SVA1420
Flight time 0h 32m
Altitude 21000
Route DATAP A424 RULEB/N0463F300 A424 DEGVU
Aircraft B77W/H-SDE1E2E3FGHIJ2J3J4J5M1RWXY/LB1D1

Departure

Time 2026-04-28 21:44
Airport King Abdulaziz International Airport (OEJN)

Arrival

Time 2026-04-28 22:16
Airport Prince Mohammad Bin Abdulaziz Airport (OEMA)
Time Latitude Longitude Altitude Speed Heading
2026-04-28 21:25 21.66560 39.17079 34 ft 0 kts 70°
2026-04-28 21:38 21.66561 39.17080 35 ft 0 kts 70°
2026-04-28 21:38 21.66556 39.17066 35 ft 7 kts 70°
2026-04-28 21:39 21.66543 39.17029 34 ft 3 kts 70°
2026-04-28 21:39 21.66536 39.17005 35 ft 7 kts 80°
2026-04-28 21:39 21.66534 39.16976 34 ft 0 kts 129°
2026-04-28 21:39 21.66516 39.16985 35 ft 0 kts 155°
2026-04-28 21:40 21.66508 39.16988 35 ft 2 kts 157°
2026-04-28 21:40 21.66493 39.16995 35 ft 3 kts 158°
2026-04-28 21:40 21.66468 39.17005 35 ft 4 kts 160°
2026-04-28 21:41 21.66436 39.17016 35 ft 5 kts 163°
2026-04-28 21:41 21.66395 39.17026 35 ft 7 kts 173°
2026-04-28 21:41 21.66326 39.17000 34 ft 17 kts 223°
2026-04-28 21:41 21.66268 39.16883 35 ft 18 kts 249°
2026-04-28 21:42 21.66223 39.16756 36 ft 18 kts 249°
2026-04-28 21:42 21.66179 39.16630 36 ft 18 kts 249°
2026-04-28 21:42 21.66152 39.16552 36 ft 10 kts 250°
2026-04-28 21:42 21.66143 39.16499 36 ft 7 kts 285°
2026-04-28 21:43 21.66172 39.16472 35 ft 4 kts 338°
2026-04-28 21:43 21.66177 39.16470 35 ft 3 kts 339°
2026-04-28 21:43 21.66201 39.16460 35 ft 8 kts 340°
2026-04-28 21:43 21.66562 39.16318 41 ft 118 kts 340°
2026-04-28 21:44 21.67683 39.15883 527 ft 201 kts 340°
2026-04-28 21:44 21.68985 39.15364 2458 ft 205 kts 338°
2026-04-28 21:44 21.70412 39.14792 3210 ft 238 kts 339°
2026-04-28 21:44 21.72022 39.14152 4036 ft 255 kts 339°
2026-04-28 21:45 21.73723 39.13478 5031 ft 267 kts 339°
2026-04-28 21:45 21.75480 39.12783 5946 ft 271 kts 338°
2026-04-28 21:45 21.77276 39.12072 7050 ft 279 kts 338°
2026-04-28 21:45 21.79123 39.11344 8131 ft 286 kts 338°
2026-04-28 21:46 21.80400 39.10841 8848 ft 291 kts 338°
2026-04-28 21:46 21.82319 39.10083 9867 ft 298 kts 338°
2026-04-28 21:46 21.84289 39.09306 10876 ft 305 kts 337°
2026-04-28 21:46 21.86303 39.08513 11876 ft 311 kts 337°
2026-04-28 21:47 21.88374 39.07772 12765 ft 319 kts 347°
2026-04-28 21:47 21.90626 39.07898 13640 ft 333 kts 14°
2026-04-28 21:47 21.92810 39.08773 14684 ft 338 kts 22°
2026-04-28 21:47 21.94957 39.09878 15683 ft 346 kts 25°
2026-04-28 21:48 21.97100 39.11064 16579 ft 354 kts 26°
2026-04-28 21:48 21.99290 39.12295 17349 ft 357 kts 25°
2026-04-28 21:48 22.01514 39.13540 17761 ft 364 kts 25°
2026-04-28 21:48 22.03783 39.14798 18218 ft 370 kts 25°
2026-04-28 21:49 22.06087 39.16067 18734 ft 373 kts 24°
2026-04-28 21:49 22.08413 39.17340 19283 ft 376 kts 24°
2026-04-28 21:49 22.10760 39.18619 19808 ft 380 kts 24°
2026-04-28 21:49 22.13136 39.19910 20319 ft 385 kts 24°
2026-04-28 21:50 22.15540 39.21215 20792 ft 389 kts 23°
2026-04-28 21:50 22.17981 39.22539 20915 ft 394 kts 23°
2026-04-28 21:50 22.20432 39.23868 20907 ft 394 kts 23°
2026-04-28 21:50 22.22868 39.25191 20901 ft 392 kts 23°
2026-04-28 21:51 22.25361 39.26542 20944 ft 413 kts 23°
2026-04-28 21:51 22.28005 39.27973 20947 ft 435 kts 24°
2026-04-28 21:51 22.30727 39.29452 20918 ft 439 kts 24°
2026-04-28 21:51 22.33461 39.30944 20915 ft 440 kts 24°
2026-04-28 21:52 22.36196 39.32437 20928 ft 440 kts 24°
2026-04-28 21:52 22.38931 39.33929 20914 ft 440 kts 24°
2026-04-28 21:52 22.41663 39.35418 20932 ft 440 kts 24°
2026-04-28 21:52 22.44395 39.36906 20930 ft 440 kts 24°
2026-04-28 21:53 22.47126 39.38396 20915 ft 440 kts 24°
2026-04-28 21:53 22.49857 39.39885 20932 ft 440 kts 24°
2026-04-28 21:53 22.52587 39.41376 20917 ft 439 kts 24°
2026-04-28 21:53 22.55317 39.42867 20916 ft 439 kts 24°
2026-04-28 21:54 22.58039 39.44357 20944 ft 439 kts 24°
2026-04-28 21:54 22.60767 39.45845 20940 ft 439 kts 24°
2026-04-28 21:54 22.63495 39.47335 20934 ft 439 kts 24°
2026-04-28 21:54 22.66241 39.48780 20934 ft 438 kts 20°
2026-04-28 21:55 22.69077 39.49953 20936 ft 435 kts 16°
2026-04-28 21:55 22.71933 39.51038 20940 ft 435 kts 15°
2026-04-28 21:55 22.74797 39.52118 20941 ft 436 kts 15°
2026-04-28 21:55 22.77626 39.53191 20940 ft 436 kts 16°
2026-04-28 21:56 22.80487 39.54288 20947 ft 436 kts 16°
2026-04-28 21:56 22.83347 39.55396 20943 ft 437 kts 16°
2026-04-28 21:56 22.86207 39.56506 20948 ft 437 kts 16°
2026-04-28 21:56 22.89067 39.57618 20948 ft 437 kts 16°
2026-04-28 21:57 22.91929 39.58733 20946 ft 437 kts 15°
2026-04-28 21:57 22.94795 39.59847 20958 ft 437 kts 17°
2026-04-28 21:57 22.97655 39.60962 20943 ft 437 kts 16°
2026-04-28 21:57 23.00555 39.61923 20939 ft 433 kts
2026-04-28 21:58 23.03502 39.62548 20941 ft 430 kts
2026-04-28 21:58 23.06468 39.62842 20940 ft 426 kts 358°
2026-04-28 21:58 23.09425 39.62990 20949 ft 426 kts 357°
2026-04-28 21:58 23.12387 39.63121 20944 ft 426 kts 357°
2026-04-28 21:59 23.15358 39.63253 20944 ft 426 kts 357°
2026-04-28 21:59 23.18322 39.63391 20948 ft 427 kts 357°
2026-04-28 21:59 23.21296 39.63537 20956 ft 428 kts 358°
2026-04-28 22:00 23.27257 39.63849 20910 ft 427 kts 358°
2026-04-28 22:00 23.30219 39.64008 20947 ft 426 kts 358°
2026-04-28 22:00 23.33178 39.64166 20937 ft 425 kts 358°
2026-04-28 22:00 23.36133 39.64322 20939 ft 425 kts 358°
2026-04-28 22:01 23.39071 39.64480 20916 ft 418 kts 358°
2026-04-28 22:01 23.41936 39.64636 20802 ft 409 kts 357°
2026-04-28 22:01 23.44785 39.64787 20280 ft 410 kts 358°
2026-04-28 22:01 23.47636 39.64936 19752 ft 409 kts 358°
2026-04-28 22:02 23.50482 39.65086 19188 ft 409 kts 359°
2026-04-28 22:02 23.53330 39.65237 18591 ft 410 kts 359°
2026-04-28 22:02 23.56194 39.65391 18004 ft 411 kts 359°
2026-04-28 22:02 23.59025 39.65542 17751 ft 403 kts 358°
2026-04-28 22:03 23.61806 39.65673 17433 ft 397 kts 358°
2026-04-28 22:03 23.64556 39.65793 16997 ft 394 kts 358°
2026-04-28 22:03 23.67285 39.65916 16561 ft 391 kts 359°
2026-04-28 22:03 23.69991 39.66038 16127 ft 388 kts 359°
2026-04-28 22:04 23.72638 39.66276 15696 ft 386 kts
2026-04-28 22:04 23.75264 39.66863 15274 ft 384 kts 11°
2026-04-28 22:04 23.77848 39.67591 14841 ft 382 kts 13°
2026-04-28 22:04 23.80407 39.68341 14427 ft 379 kts 13°
2026-04-28 22:05 23.82951 39.69072 14011 ft 376 kts 12°
2026-04-28 22:05 23.85478 39.69778 13598 ft 374 kts 12°
2026-04-28 22:05 23.87996 39.70461 13181 ft 371 kts 12°
2026-04-28 22:05 23.90489 39.71128 12808 ft 367 kts 12°
2026-04-28 22:06 23.92964 39.71782 12428 ft 364 kts 12°
2026-04-28 22:06 23.95416 39.72428 12026 ft 362 kts 12°
2026-04-28 22:06 23.97853 39.73069 11637 ft 359 kts 12°
2026-04-28 22:06 24.00275 39.73706 11237 ft 357 kts 12°
2026-04-28 22:07 24.02683 39.74340 10845 ft 355 kts 12°
2026-04-28 22:07 24.05071 39.74970 10450 ft 352 kts 12°
2026-04-28 22:07 24.07446 39.75596 10067 ft 350 kts 12°
2026-04-28 22:07 24.09793 39.76215 9803 ft 343 kts 12°
2026-04-28 22:08 24.12089 39.76823 9601 ft 334 kts 11°
2026-04-28 22:08 24.14307 39.77408 9539 ft 322 kts 11°
2026-04-28 22:08 24.16443 39.77972 9422 ft 311 kts 11°
2026-04-28 22:08 24.18536 39.78443 9033 ft 304 kts
2026-04-28 22:09 24.20623 39.78256 8633 ft 300 kts 346°
2026-04-28 22:09 24.22660 39.77790 8198 ft 296 kts 346°
2026-04-28 22:09 24.24630 39.77350 7803 ft 281 kts 346°
2026-04-28 22:09 24.26471 39.76956 7466 ft 265 kts 346°
2026-04-28 22:10 24.28216 39.76586 7140 ft 246 kts 346°
2026-04-28 22:10 24.29848 39.76239 6805 ft 227 kts 346°
2026-04-28 22:10 24.31348 39.75921 6488 ft 211 kts 346°
2026-04-28 22:10 24.32705 39.75634 6239 ft 186 kts 346°
2026-04-28 22:11 24.33891 39.75383 5975 ft 162 kts 345°
2026-04-28 22:11 24.34955 39.75155 5784 ft 154 kts 345°
2026-04-28 22:11 24.36007 39.74929 5604 ft 154 kts 346°
2026-04-28 22:11 24.37060 39.74705 5388 ft 154 kts 346°
2026-04-28 22:12 24.38107 39.74483 5196 ft 152 kts 346°
2026-04-28 22:12 24.39142 39.74263 4982 ft 150 kts 346°
2026-04-28 22:12 24.40165 39.74046 4780 ft 152 kts 348°
2026-04-28 22:12 24.41222 39.73821 4595 ft 156 kts 349°
2026-04-28 22:13 24.42286 39.73594 4382 ft 155 kts 349°
2026-04-28 22:13 24.43331 39.73372 4166 ft 150 kts 349°
2026-04-28 22:13 24.44342 39.73157 3972 ft 150 kts 350°
2026-04-28 22:13 24.45382 39.72936 3787 ft 151 kts 349°
2026-04-28 22:14 24.46408 39.72718 3570 ft 149 kts 349°
2026-04-28 22:14 24.47415 39.72504 3379 ft 146 kts 349°
2026-04-28 22:14 24.48407 39.72293 3181 ft 144 kts 349°
2026-04-28 22:14 24.49395 39.72083 2992 ft 145 kts 349°
2026-04-28 22:15 24.50387 39.71871 2795 ft 145 kts 349°
2026-04-28 22:15 24.51378 39.71661 2588 ft 145 kts 349°
2026-04-28 22:15 24.52362 39.71454 2408 ft 143 kts 349°
2026-04-28 22:15 24.53329 39.71249 2218 ft 144 kts 349°
2026-04-28 22:16 24.54311 39.71041 2123 ft 138 kts 349°
2026-04-28 22:16 24.55133 39.70869 2116 ft 93 kts 349°
2026-04-28 22:16 24.55633 39.70762 2113 ft 68 kts 348°
2026-04-28 22:16 24.55975 39.70691 2117 ft 38 kts 353°
2026-04-28 22:17 24.56205 39.70724 2117 ft 27 kts 19°
2026-04-28 22:17 24.56272 39.70802 2113 ft 12 kts 106°
2026-04-28 22:17 24.56194 39.70827 2112 ft 13 kts 168°
2026-04-28 22:17 24.56104 39.70848 2112 ft 13 kts 169°
2026-04-28 22:18 24.56012 39.70868 2112 ft 13 kts 169°
2026-04-28 22:18 24.55914 39.70890 2112 ft 16 kts 168°
2026-04-28 22:18 24.55794 39.70916 2111 ft 19 kts 169°
2026-04-28 22:18 24.55653 39.70944 2111 ft 22 kts 169°
2026-04-28 22:19 24.55505 39.70975 2111 ft 22 kts 169°
2026-04-28 22:19 24.55357 39.71007 2111 ft 22 kts 168°
2026-04-28 22:19 24.55262 39.71030 2112 ft 13 kts 156°
2026-04-28 22:19 24.55234 39.71121 2110 ft 14 kts 85°
2026-04-28 22:20 24.55234 39.71224 2110 ft 12 kts 92°
2026-04-28 22:20 24.55244 39.71292 2110 ft 7 kts 79°
2026-04-28 22:20 24.55249 39.71320 2110 ft 0 kts 79°
2026-04-28 22:20 24.55249 39.71321 2110 ft 0 kts 79°